User: anonymous   Login
Location: Владивосток
(43.1151°N, 131.8856°E)
Time: 13:36:32
(UTC+10:00)
Language:

First-Move - Orbit

View from above orbital plane
View from above orbital plane
View from above satellite
View from above satellite

Ground track
Ground track

The orbit data is extracted from the following two-line orbital elements,

1 39439U 13066Z   22178.45198180  .00003146  00000-0  36854-3 0  9993
2 39439  97.6367 151.8764 0063147   8.9120 351.3200 14.84284368463534
Epoch (UTC): 27 June 2022 10:50:51
Eccentricity: 0.0063147
inclination: 97.6367°
perigee height: 571 km
apogee height: 660 km
right ascension of ascending node: 151.8764°
argument of perigee: 8.9120°
revolutions per day: 14.84284368
mean anomaly at epoch: 351.3200°
orbit number at epoch: 46353

The dashed part of the orbit path shows where the satellite is in the earth's shadow,  

DLR